Tracking 28790 objects as of 19-Apr-2024
HD Live streaming from Space Station
objects crossing your sky now

SUOMI 100

Track SUOMI 100 now!
10-day predictions
SUOMI 100 is classified as:


NORAD ID: 43804
Int'l Code: 2018-099AY
Perigee: 545.5 km
Apogee: 570.3 km
Inclination: 97.5 °
Period: 95.7 minutes
Semi major axis: 6928 km
RCS: Unknown
Launch date: December 3, 2018
Source: (TBD)
Launch site: AIR FORCE WESTERN TEST RANGE (AFWTR)

Uplink (MHz):
Downlink (MHz): 437.775/2410.000
Beacon (MHz):
Mode: 9600bps FSK
Call sign:
Status: Active

Your satellite tracking list
Your tracking list is empty




NASA's NSSDC Master Catalog

Two Line Element Set (TLE):
1 43804U 18099AY  24109.68624915  .00013919  00000-0  97417-3 0  9997
2 43804  97.5340 169.5295 0017893 141.1457 219.1060 15.05242426293720
Source of the keplerian elements: AMSAT